Temp
4 5 5 5 5 5 5 5 6 6 6 6 7 7 7 8 8 8 9 10 9 9 10 10 10 10 10 9 9 9 9 10 9 10 10 10 11 10 10 11 9 9 9 9 9
4 4 4 5 5 5 5 5 5 5 6 6 6 6 7 7 8 8 9 9 9 9 10 9 9 10 10 9 8 8 9 9 9 10 10 10 10 10 10 10 10 9 8 8 8
4 4 4 4 4 4 4 5 5 5 5 5 5 5 6 7 8 8 8 8 8 9 9 9 8 9 9 9 8 8 10 9 9 9 10 9 9 9 9 9 11 11 9 9 8
3 3 3 4 4 4 4 4 4 5 5 4 5 5 5 5 7 6 7 7 7 8 8 9 9 9 8 8 8 8 9 8 8 8 9 9 9 9 9 9 9 10 9 9 9
3 3 3 3 3 4 4 4 3 4 4 4 4 4 5 5 6 5 6 7 6 7 7 8 8 7 8 8 7 7 8 8 8 8 8 9 9 8 9 9 9 8 8 8 9
2 2 2 2 3 3 3 3 3 3 3 3 4 4 4 5 5 5 6 6 6 6 6 7 6 7 8 8 7 7 8 8 8 8 8 8 8 8 8 8 8 8 8 8 8
1 1 2 2 2 3 2 3 3 3 3 3 3 4 4 6 4 5 5 6 6 6 6 6 7 7 7 8 7 7 7 8 7 8 8 7 8 9 8 8 8 8 8 8 8
1 1 1 1 1 2 2 2 2 3 3 3 3 3 4 5 5 5 5 6 6 6 6 6 6 7 7 7 7 7 7 8 8 8 7 8 9 9 8 7 8 8 8 7 7
0 1 1 1 1 1 2 2 2 3 3 3 3 3 4 5 5 5 6 6 6 5 6 6 6 6 6 6 6 7 7 7 8 9 8 7 8 9 8 8 8 8 7 7 7
0 1 1 1 0 1 1 1 1 2 3 2 3 2 4 4 5 5 5 5 5 5 6 6 5 5 5 6 6 6 6 7 8 9 8 8 8 8 8 8 8 7 7 7 6
-1 -1 -1 -0 0 -0 -0 0 1 1 2 1 1 2 2 2 4 5 4 4 4 5 6 6 4 5 8 6 6 6 6 6 7 8 6 7 8 7 8 7 7 6 6 6 6
-0 1 1 -0 -1 -0 -1 -1 -0 -1 1 1 -0 1 2 2 2 3 4 3 4 5 5 4 5 7 6 5 5 5 5 6 7 8 6 7 7 7 7 7 7 7 6 6 6
0 0 -0 0 -1 -1 -1 -1 -1 -1 -1 2 1 2 2 2 3 3 3 3 3 3 4 5 5 5 6 5 4 4 4 5 5 7 6 7 7 7 7 6 6 6 6 6 5
-2 -2 -2 -2 -1 -1 -1 -1 -1 -0 -1 2 3 4 3 3 3 3 2 2 2 2 3 3 4 5 4 4 4 4 5 5 5 5 6 6 5 6 6 6 6 6 6 6 6
-5 -5 -4 -4 -2 -3 -3 -3 -4 -5 -4 3 2 2 3 3 4 3 3 2 2 3 2 3 4 5 5 5 5 4 5 5 5 6 6 6 5 6 6 6 6 6 6 7 7
-4 -5 -5 -4 -4 -4 -5 -4 -5 -5 -5 1 1 3 3 3 4 3 2 1 0 0 1 1 2 3 3 4 4 4 4 4 5 5 3 4 5 6 5 7 6 6 6 6 6
-5 -4 -5 -5 -5 -5 -5 -5 -5 -5 -1 1 1 1 2 2 2 3 2 1 1 -1 -0 1 2 3 3 3 3 4 4 3 1 0 2 5 4 6 5 6 7 7 6 6 6
-5 -5 -5 -6 -6 -6 -6 -6 -6 -2 -1 0 0 -0 -0 1 1 2 1 2 2 2 1 1 1 3 4 4 4 4 4 3 1 0 3 4 4 4 5 6 6 5 6 6 5
-6 -5 -6 -6 -6 -5 -6 -6 -4 -3 -2 -2 -2 -0 -1 -1 -1 0 0 2 2 3 1 1 2 4 3 4 3 3 4 4 4 2 1 3 4 4 5 5 6 5 5 5 5
-6 -6 -6 -6 -6 -6 -6 -6 -5 -3 -3 -3 -3 -2 -1 -1 -0 -1 -0 1 2 2 1 1 1 2 3 3 3 3 4 3 3 2 2 3 3 4 4 5 5 5 5 5 4
-6 -6 -7 -7 -7 -7 -7 -7 -5 -3 -5 -5 -5 -4 -2 -3 -2 -1 -2 -0 0 0 0 1 0 1 2 3 3 2 3 3 3 3 2 2 2 4 4 5 4 4 4 4 4
-7 -7 -7 -8 -8 -8 -7 -7 -5 -4 -6 -6 -5 -5 -4 -5 -3 -3 -2 -2 -2 -1 -1 -0 -0 -0 0 2 2 2 2 3 3 2 2 2 2 3 4 4 3 3 3 3 2
-7 -8 -7 -8 -9 -9 -8 -8 -7 -6 -6 -6 -6 -5 -5 -5 -4 -3 -3 -3 -2 -3 -2 -1 -1 -1 -0 -0 1 1 2 2 2 2 2 0 2 2 3 2 2 2 2 2 2
-8 -8 -8 -8 -8 -8 -9 -8 -7 -6 -7 -7 -7 -6 -6 -5 -5 -5 -4 -4 -4 -4 -3 -3 -3 -2 -1 -1 -0 1 1 2 2 1 1 1 1 2 1 1 1 1 1 1 0
-8 -8 -8 -8 -8 -9 -10 -8 -8 -7 -6 -7 -7 -7 -6 -6 -5 -5 -6 -5 -5 -4 -4 -4 -4 -4 -3 -4 -2 -0 0 1 1 -0 -0 -0 0 1 -1 -1 -1 -1 -1 -1 -1
-9 -9 -9 -9 -9 -9 -10 -8 -8 -6 -9 -7 -7 -7 -6 -7 -6 -6 -5 -5 -5 -6 -5 -5 -5 -6 -6 -5 -5 -5 -3 -4 -3 -3 -3 -3 -2 -1 -0 -2 -2 -2 -2 -1 -2
-10 -10 -10 -9 -9 -10 -9 -9 -8 -9 -9 -8 -7 -7 -7 -6 -6 -6 -6 -6 -5 -6 -6 -6 -6 -6 -6 -6 -6 -5 -3 -5 -5 -5 -5 -5 -2 -1 -2 -2 -1 -1 -1 -2 -2
Height
3140 3142 3143 3144 3145 3147 3147 3147 3148 3148 3148 3147 3147 3147 3146 3147 3147 3146 3146 3147 3147 3147 3146 3148 3147 3146 3148 3149 3151 3151 3154 3155 3158 3158 3157 3156 3156 3158 3159 3157 3156 3159 3159 3159 3157
3134 3136 3138 3139 3140 3141 3142 3143 3143 3144 3144 3144 3142 3142 3142 3142 3143 3143 3143 3143 3143 3144 3144 3145 3144 3144 3146 3146 3148 3148 3149 3154 3155 3156 3157 3156 3156 3156 3156 3154 3155 3153 3156 3158 3157
3129 3131 3132 3133 3134 3136 3137 3138 3139 3139 3139 3139 3139 3138 3138 3138 3140 3140 3140 3139 3140 3140 3141 3141 3141 3142 3143 3144 3145 3146 3145 3149 3152 3153 3156 3155 3155 3155 3152 3150 3151 3151 3152 3155 3157
3122 3124 3125 3127 3128 3129 3131 3133 3133 3134 3134 3134 3133 3134 3134 3135 3140 3135 3136 3136 3137 3138 3137 3137 3137 3137 3140 3142 3143 3143 3144 3146 3148 3148 3152 3153 3153 3153 3152 3148 3147 3148 3149 3152 3153
3116 3117 3119 3120 3121 3123 3124 3127 3128 3129 3129 3129 3129 3129 3130 3132 3134 3132 3133 3132 3132 3134 3135 3134 3136 3134 3135 3136 3138 3139 3141 3143 3145 3145 3147 3151 3151 3151 3149 3147 3145 3143 3146 3148 3150
3108 3110 3112 3112 3113 3116 3118 3120 3123 3125 3124 3124 3124 3124 3124 3127 3126 3127 3129 3129 3129 3129 3131 3132 3132 3130 3132 3132 3133 3135 3137 3136 3139 3142 3140 3143 3146 3149 3145 3143 3141 3140 3141 3144 3146
3100 3103 3105 3105 3107 3109 3110 3113 3116 3118 3119 3119 3118 3117 3117 3125 3121 3122 3123 3125 3125 3125 3127 3128 3128 3129 3128 3130 3129 3130 3131 3132 3132 3136 3137 3139 3138 3140 3145 3138 3138 3136 3137 3139 3141
3091 3095 3097 3098 3100 3101 3103 3104 3107 3109 3111 3112 3111 3109 3106 3119 3114 3116 3118 3120 3120 3120 3121 3122 3124 3125 3125 3126 3127 3128 3127 3126 3129 3131 3134 3135 3130 3136 3137 3132 3131 3131 3133 3136 3137
3084 3086 3087 3090 3092 3094 3095 3097 3100 3103 3105 3106 3107 3106 3102 3109 3108 3110 3112 3114 3114 3115 3115 3116 3118 3117 3120 3123 3125 3121 3119 3120 3122 3127 3128 3128 3123 3130 3131 3125 3124 3125 3128 3130 3131
3076 3077 3078 3081 3083 3086 3089 3091 3093 3095 3097 3099 3099 3104 3102 3103 3102 3106 3107 3107 3110 3110 3111 3112 3110 3109 3116 3118 3111 3112 3115 3116 3117 3122 3121 3120 3118 3122 3123 3119 3119 3120 3123 3124 3124
3068 3071 3072 3075 3077 3080 3084 3088 3091 3090 3088 3090 3093 3091 3094 3095 3100 3100 3102 3104 3103 3104 3107 3105 3104 3102 3107 3111 3109 3112 3112 3112 3112 3115 3113 3112 3113 3114 3117 3117 3114 3115 3117 3119 3118
3061 3062 3065 3067 3069 3072 3076 3078 3081 3081 3079 3082 3084 3081 3085 3093 3085 3090 3096 3097 3098 3098 3098 3099 3092 3100 3103 3105 3106 3108 3108 3106 3106 3108 3110 3107 3108 3109 3111 3112 3109 3108 3110 3113 3112
3052 3054 3056 3058 3060 3063 3066 3069 3074 3074 3072 3069 3077 3072 3077 3080 3075 3080 3087 3090 3090 3090 3090 3089 3091 3094 3096 3097 3099 3099 3100 3102 3102 3105 3106 3105 3104 3105 3106 3107 3105 3102 3103 3104 3106
3044 3047 3048 3051 3056 3057 3058 3059 3066 3067 3067 3062 3069 3065 3067 3068 3065 3068 3076 3080 3080 3082 3087 3080 3083 3087 3088 3088 3095 3090 3095 3097 3099 3101 3098 3101 3095 3096 3100 3101 3100 3097 3094 3095 3096
3038 3040 3043 3045 3048 3052 3054 3056 3061 3066 3067 3059 3058 3059 3061 3065 3065 3064 3066 3068 3070 3075 3079 3070 3076 3080 3078 3080 3089 3084 3091 3093 3094 3094 3093 3091 3092 3084 3090 3090 3090 3089 3090 3090 3091
3033 3034 3037 3040 3045 3047 3050 3055 3060 3068 3056 3048 3048 3047 3049 3057 3058 3058 3061 3062 3067 3071 3069 3067 3072 3074 3076 3077 3083 3086 3087 3087 3087 3086 3081 3081 3088 3066 3075 3078 3080 3080 3080 3083 3086
3028 3029 3032 3036 3042 3043 3046 3053 3060 3057 3049 3043 3043 3044 3043 3048 3051 3050 3055 3058 3061 3066 3059 3065 3058 3067 3072 3072 3076 3080 3081 3080 3083 3080 3069 3077 3080 3052 3068 3072 3072 3071 3072 3077 3079
3023 3025 3027 3032 3036 3037 3043 3048 3046 3043 3042 3040 3042 3042 3041 3045 3045 3045 3045 3049 3053 3056 3059 3056 3053 3058 3061 3061 3066 3067 3070 3067 3069 3070 3065 3071 3058 3050 3058 3064 3065 3065 3068 3070 3071
3016 3020 3022 3028 3031 3034 3036 3036 3036 3038 3039 3036 3036 3036 3039 3040 3043 3040 3041 3040 3044 3048 3049 3053 3045 3046 3050 3053 3060 3058 3057 3059 3061 3060 3060 3054 3052 3050 3049 3052 3055 3055 3061 3065 3067
3010 3015 3018 3023 3026 3029 3028 3025 3029 3031 3032 3033 3033 3035 3034 3036 3038 3037 3038 3037 3037 3038 3041 3043 3043 3039 3040 3046 3046 3049 3054 3055 3053 3055 3054 3044 3047 3043 3044 3044 3047 3050 3055 3059 3061
3007 3009 3010 3016 3020 3022 3017 3018 3019 3025 3027 3031 3031 3032 3033 3032 3032 3033 3030 3036 3035 3032 3034 3036 3041 3033 3037 3029 3029 3040 3042 3043 3041 3043 3041 3043 3038 3038 3038 3041 3043 3046 3049 3052 3055
3003 3003 3004 3008 3013 3012 3011 3014 3017 3018 3023 3025 3026 3029 3030 3029 3027 3029 3028 3030 3028 3027 3027 3026 3028 3025 3021 3026 3027 3025 3032 3034 3030 3032 3032 3035 3029 3034 3033 3036 3039 3042 3044 3048 3052
2998 2999 3000 3002 3003 3004 3006 3008 3010 3014 3017 3019 3020 3023 3024 3025 3026 3020 3022 3023 3022 3022 3019 3019 3018 3020 3016 3019 3014 3015 3016 3022 3024 3024 3024 3027 3023 3032 3033 3033 3035 3038 3041 3043 3045
2993 2994 2995 2996 2998 2999 3001 3003 3004 3006 3007 3012 3011 3013 3019 3018 3020 3017 3019 3019 3018 3016 3015 3014 3012 3010 3007 3011 3010 3007 3007 3011 3014 3014 3015 3017 3022 3026 3027 3029 3031 3034 3038 3040 3040
2986 2986 2988 2989 2991 2993 2995 2994 2995 2998 3000 3005 3004 3006 3010 3011 3012 3013 3013 3015 3015 3011 3009 3010 3006 3001 3002 3003 3003 3001 3001 3005 3006 3006 3007 3010 3017 3023 3022 3025 3028 3030 3031 3032 3033
2978 2981 2981 2983 2985 2987 2988 2987 2989 2989 2993 2993 2997 2999 3003 3003 3006 3007 3008 3007 3010 3008 3004 3003 3001 3002 3000 2998 3001 2999 2998 3000 3001 3001 3001 3004 3008 3012 3018 3019 3018 3023 3024 3023 3022
2972 2972 2975 2975 2977 2979 2980 2980 2981 2984 2983 2985 2990 2994 2993 2994 3001 3000 3001 3001 3001 3001 2999 2997 3000 3004 2994 2997 2998 2999 2998 2996 2996 2996 2996 2996 2999 3006 3007 3011 3013 3014 3014 3016 3017
Wind_Speed
31 30 29 28 27 26 25 24 23 22 22 21 23 24 25 23 22 22 22 21 18 17 16 13 12 15 14 13 15 19 15 6 3 5 16 20 17 18 19 19 11 9 11 13 17
32 31 30 30 29 28 27 26 25 24 23 23 23 24 26 24 23 22 22 21 20 18 16 13 14 14 15 16 20 20 19 6 4 3 15 15 14 14 18 20 21 17 13 15 18
32 32 31 31 30 30 29 28 27 25 24 23 24 23 25 24 22 22 18 18 17 18 16 13 14 14 14 18 20 20 21 14 7 6 12 13 16 13 18 18 18 21 22 21 22
34 33 33 33 32 32 31 29 29 28 27 25 25 24 24 21 14 14 14 14 13 12 11 14 17 17 16 19 16 18 15 13 12 11 14 14 16 17 19 18 16 22 22 22 22
35 35 34 35 35 33 32 30 29 29 28 27 27 26 25 23 18 21 18 17 16 19 13 13 15 18 18 21 22 19 15 14 19 19 15 18 18 16 21 23 24 24 22 24 26
38 36 35 36 36 35 33 31 30 30 29 29 29 29 29 27 25 22 14 13 15 17 16 16 16 22 22 22 23 18 20 21 25 26 23 20 20 25 22 24 27 30 29 28 30
42 39 38 38 40 39 37 34 33 32 33 31 32 33 35 23 29 29 21 16 15 18 16 22 21 22 23 21 27 27 26 25 22 24 27 21 23 25 24 27 30 33 31 29 26
37 45 41 46 46 43 43 39 36 36 36 35 34 37 39 25 31 28 28 21 19 20 18 20 26 26 27 21 19 29 31 33 30 25 28 28 33 25 18 27 28 30 31 27 24
35 34 40 47 49 49 45 46 43 43 40 38 37 37 39 28 26 26 26 21 19 18 21 20 25 30 31 26 24 25 32 35 33 28 29 33 37 23 24 30 33 29 25 24 28
30 37 47 51 51 49 46 45 43 43 41 40 41 39 32 30 27 24 22 23 21 18 18 21 28 32 29 29 36 36 30 31 26 17 20 26 33 31 23 24 22 24 25 26 26
37 34 31 34 31 38 43 50 35 37 42 42 39 40 29 32 35 31 28 25 22 24 20 22 29 33 29 31 34 29 20 28 26 20 18 23 28 34 26 19 25 27 28 27 31
40 38 41 39 41 40 43 45 41 31 42 32 31 44 46 40 48 40 32 29 24 25 24 24 34 26 28 29 29 31 32 33 28 26 21 21 30 30 27 25 29 31 30 31 35
31 30 31 34 38 41 42 43 40 32 35 45 35 42 38 36 48 47 40 36 34 32 29 32 29 12 21 30 31 33 33 29 27 19 19 21 31 32 31 26 30 35 33 32 35
27 27 26 23 26 27 22 26 26 32 26 43 30 27 21 25 40 40 39 38 37 34 26 29 34 31 29 27 28 35 31 29 26 27 27 22 16 30 31 37 37 36 41 40 38
22 25 20 22 20 12 12 10 6 13 2 14 18 10 7 6 15 17 13 39 41 37 31 29 24 25 32 37 25 31 26 24 23 29 27 29 15 26 31 35 35 38 38 38 41
24 22 23 24 13 11 11 9 7 6 10 11 16 19 18 19 15 17 13 31 39 36 35 37 29 22 20 18 28 11 22 25 24 25 18 25 21 40 31 38 37 39 42 41 38
21 23 24 20 12 13 15 15 12 9 6 8 17 20 23 19 20 20 19 22 30 24 39 38 43 38 31 29 19 34 29 7 6 6 11 17 19 51 15 26 30 34 39 39 38
31 27 21 20 19 15 14 20 10 12 29 11 1 9 19 21 24 21 29 27 29 31 22 20 24 36 40 42 34 32 39 19 8 6 11 22 19 34 35 33 35 31 25 28 36
36 36 29 22 21 24 23 35 26 27 15 17 20 26 23 25 20 20 32 37 34 36 38 22 32 36 31 34 45 42 42 45 25 6 3 13 26 31 33 29 32 38 33 27 28
22 33 33 27 22 25 33 32 36 35 25 14 6 10 8 14 30 24 24 30 37 41 45 31 28 31 26 20 39 42 34 23 26 14 17 13 23 23 19 20 23 24 25 24 28
15 20 26 35 31 30 40 34 37 39 30 21 10 11 16 14 9 24 19 30 18 23 35 44 40 36 21 30 38 40 40 31 31 35 16 15 19 35 35 28 22 23 24 25 31
13 14 18 22 27 33 41 39 34 41 37 30 22 20 21 19 21 15 15 15 22 26 20 40 32 46 56 34 29 32 42 44 26 23 32 28 29 11 16 21 19 20 22 25 27
14 13 14 13 25 31 36 27 31 38 34 24 31 40 35 30 19 21 18 19 28 30 16 21 21 37 38 37 50 48 41 49 46 29 31 16 26 20 13 14 15 15 17 22 28
19 17 15 15 19 21 23 30 33 26 27 31 23 34 37 38 33 25 23 16 18 21 32 27 26 23 26 15 12 27 46 43 49 36 36 31 22 14 18 15 17 21 24 26 31
22 20 21 15 14 12 14 23 26 37 43 28 37 37 29 33 34 36 38 30 23 15 14 11 2 3 21 13 18 17 16 27 31 25 28 42 27 26 10 13 14 17 25 31 35
23 23 23 21 19 20 20 26 26 30 33 42 34 34 40 43 37 34 26 29 31 13 11 13 8 21 22 17 15 10 11 11 19 17 10 17 24 26 20 18 25 27 30 33 28
23 24 23 26 25 24 25 24 24 22 31 35 38 38 40 40 30 32 33 26 23 21 21 21 19 17 12 9 14 14 17 21 18 21 16 18 19 19 26 24 23 25 32 31 25
Wind_Direction
251 254 256 259 262 265 267 269 270 273 274 275 279 283 283 284 285 288 286 286 281 277 278 272 255 242 229 208 212 209 222 233 272 307 178 178 203 190 196 209 208 215 193 222 243
249 252 255 257 260 262 265 266 268 271 271 273 276 280 282 284 283 287 285 284 284 277 265 260 248 244 236 199 203 207 221 180 132 155 170 185 204 208 206 210 213 227 225 229 242
251 252 253 255 257 260 262 265 267 265 265 268 272 277 282 286 288 291 290 285 283 278 269 247 237 235 235 214 206 213 217 196 201 189 196 191 191 194 213 206 228 241 244 246 246
249 251 253 255 255 257 260 262 262 262 262 264 267 272 278 284 297 284 282 292 293 284 266 243 235 229 225 215 200 228 214 215 246 235 215 205 199 200 199 228 226 243 248 258 266
253 253 255 257 258 258 258 259 260 259 260 262 266 270 272 274 279 286 286 280 276 268 276 254 241 227 215 206 199 223 219 236 250 252 237 231 234 217 223 218 228 237 243 250 261
254 254 255 256 257 256 254 255 258 261 261 262 265 270 270 273 280 279 278 277 272 263 248 249 236 232 228 208 208 212 229 225 238 245 253 240 243 240 233 237 238 242 247 250 256
254 253 252 255 264 260 257 253 255 255 258 261 264 269 270 273 276 279 284 279 273 264 250 241 241 236 236 223 220 217 229 228 222 238 247 257 253 244 235 240 243 249 253 255 262
257 258 255 255 252 258 255 255 255 252 253 256 261 267 271 274 267 273 276 277 275 264 254 239 241 242 242 235 232 232 237 236 231 236 247 255 257 257 241 239 246 250 251 258 264
259 267 259 251 250 248 254 258 259 258 257 257 260 267 279 282 269 268 268 266 273 259 253 235 238 239 242 240 242 239 243 242 249 245 249 241 256 253 236 247 249 253 253 259 276
247 251 242 244 248 250 256 248 250 255 260 259 261 270 269 267 266 268 268 262 263 262 254 242 236 237 239 233 234 232 238 248 250 254 257 250 245 252 250 248 237 247 252 267 274
254 246 244 253 253 263 274 264 249 249 251 257 259 262 259 266 264 264 265 261 263 265 266 250 237 241 253 245 246 245 247 255 254 232 298 261 249 240 240 222 233 243 251 262 272
259 257 262 262 265 269 266 264 251 265 257 247 257 268 266 265 264 257 259 260 259 266 260 249 251 264 255 247 248 248 250 251 253 236 274 257 239 231 234 232 241 252 253 263 276
251 253 252 258 260 263 258 249 254 253 277 255 275 272 279 266 261 254 255 259 260 260 250 257 260 266 254 246 241 240 241 247 253 253 266 244 230 233 238 234 244 251 263 262 265
244 248 251 253 261 258 263 263 271 274 274 277 283 269 271 248 251 256 242 247 251 252 250 256 256 250 250 245 235 243 237 242 259 262 249 238 246 238 235 230 235 255 263 264 261
223 239 250 248 258 246 244 241 246 267 284 255 240 234 244 235 281 276 239 235 242 245 235 243 257 263 249 243 228 249 237 237 257 244 249 248 250 256 236 224 234 245 258 262 264
213 232 241 242 252 222 217 202 169 192 246 220 224 232 212 257 268 253 228 214 238 238 242 252 249 245 255 262 224 247 229 241 245 246 246 241 246 260 222 237 248 255 259 256 256
197 229 226 232 213 222 224 199 184 206 235 226 229 236 260 253 218 217 225 214 218 219 241 247 251 244 236 249 229 235 232 209 236 213 241 233 227 247 247 243 259 263 260 257 254
200 207 198 225 221 233 225 196 196 238 232 173 80 261 241 243 231 229 214 225 223 236 245 240 261 249 244 230 226 230 225 214 202 201 242 235 239 251 261 260 257 258 248 257 251
215 222 223 222 202 239 208 192 218 228 244 266 262 251 251 234 237 248 230 226 230 237 221 234 248 253 255 246 229 229 223 229 231 257 206 214 240 257 256 252 240 243 244 239 235
237 231 231 212 217 232 210 215 234 241 245 245 256 246 231 259 245 241 233 240 241 240 236 235 260 255 262 242 238 232 227 208 216 225 240 235 232 240 236 233 218 221 226 228 224
242 237 232 228 228 227 217 220 239 241 233 239 253 247 240 268 247 244 244 239 243 260 244 238 235 255 248 222 231 224 227 227 228 221 229 250 253 251 246 248 243 234 231 234 227
239 240 236 228 221 227 230 231 248 237 242 240 237 250 262 279 277 272 270 275 246 249 246 232 237 245 242 234 232 224 232 223 216 221 224 229 245 259 223 237 230 237 241 232 224
248 249 242 225 225 226 228 245 249 247 256 261 249 246 252 267 281 278 272 266 259 250 247 234 225 238 258 258 250 251 235 235 228 231 218 210 238 221 232 239 229 227 231 237 238
254 254 250 247 246 247 243 244 244 245 266 243 232 243 242 259 254 266 256 274 269 269 258 266 234 225 239 245 281 253 243 240 223 221 226 228 235 227 222 227 221 231 237 239 242
251 254 258 254 254 252 244 254 257 251 253 262 256 249 233 250 257 253 258 272 279 258 243 246 258 334 233 264 252 255 233 220 221 225 221 233 236 219 248 262 231 249 263 252 245
251 256 257 259 260 260 253 261 257 256 250 246 257 256 257 254 257 263 264 256 253 270 292 293 314 317 325 324 333 322 235 249 238 230 218 213 225 221 228 288 284 269 250 262 264
256 258 261 263 261 255 256 264 263 272 265 259 255 264 250 252 256 254 245 254 258 276 279 297 304 282 296 287 307 305 291 287 290 287 276 281 265 279 289 279 269 262 264 264 261